When you browse on this site, cookies collect data to enhance your experience and personalize the content and advertising you see.
Visit our Privacy Policy to learn more. By continuing to use the site, you agree to this use of cookies and data.
  • In Portugal
  • List of Countries
  • For 7 days
  • Water Temperature
  • Satellite Maps
  • Weather Map
  • Weather Widgets
  • user-avatar
    Login

    Hourly Weather Grigorovichi

    Today, 23 May, Thursday

    Time Temperature Precipitation Wind Pressure Humidity
    00:00 +15°C° 0 mm 1 mps 733 mmHg 72%
    01:00 +15°C° 0 mm 1 mps 733 mmHg 75%
    02:00 +14°C° 0 mm 1 mps 733 mmHg 79%
    03:00 +14°C° 0 mm 1 mps 733 mmHg 81%
    04:00 +14°C° 0 mm 1 mps 733 mmHg 83%
    05:00 +14°C° 0 mm 1 mps 733 mmHg 85%
    06:00 +16°C° 0 mm 2 mps 733 mmHg 78%
    07:00 +18°C° 0 mm 2 mps 733 mmHg 71%
    08:00 +20°C° 0 mm 2 mps 734 mmHg 65%
    09:00 +21°C° 0.1 mm 2 mps 734 mmHg 58%
    10:00 +24°C° 0.1 mm 2 mps 734 mmHg 52%
    11:00 +25°C° 0.1 mm 2 mps 734 mmHg 46%
    12:00 +25°C° 0 mm 2 mps 734 mmHg 45%
    13:00 +25°C° 0 mm 3 mps 733 mmHg 44%
    14:00 +26°C° 0 mm 3 mps 733 mmHg 44%
    15:00 +25°C° 0 mm 3 mps 733 mmHg 47%
    16:00 +25°C° 0 mm 3 mps 733 mmHg 50%
    17:00 +25°C° 0 mm 3 mps 733 mmHg 53%
    18:00 +23°C° 0.1 mm 2 mps 733 mmHg 61%
    19:00 +20°C° 0.1 mm 2 mps 733 mmHg 70%
    20:00 +19°C° 0.1 mm 1 mps 733 mmHg 78%
    21:00 +18°C° 0 mm 1 mps 733 mmHg 81%
    22:00 +18°C° 0 mm 1 mps 733 mmHg 85%
    23:00 +16°C° 0 mm 1 mps 733 mmHg 88%

    Tomorrow, 24 May, Friday

    Time Temperature Precipitation Wind Pressure Humidity
    00:00 +15°C° 0.3 mm 1 mps 733 mmHg 89%
    01:00 +15°C° 0.3 mm 1 mps 733 mmHg 91%
    02:00 +15°C° 0.3 mm 1 mps 733 mmHg 93%
    03:00 +15°C° 0 mm 1 mps 733 mmHg 93%
    04:00 +15°C° 0 mm 1 mps 733 mmHg 93%
    05:00 +15°C° 0 mm 1 mps 733 mmHg 93%
    06:00 +16°C° 0 mm 1 mps 733 mmHg 88%
    07:00 +19°C° 0 mm 1 mps 733 mmHg 82%
    08:00 +21°C° 0 mm 1 mps 734 mmHg 76%
    09:00 +21°C° 2 mm 1 mps 734 mmHg 75%
    10:00 +21°C° 2 mm 2 mps 734 mmHg 74%
    11:00 +23°C° 2 mm 2 mps 734 mmHg 72%
    12:00 +23°C° 1.2 mm 2 mps 734 mmHg 71%
    13:00 +23°C° 1.2 mm 2 mps 734 mmHg 71%
    14:00 +23°C° 1.2 mm 2 mps 733 mmHg 70%
    15:00 +23°C° 0.7 mm 2 mps 733 mmHg 71%
    16:00 +23°C° 0.7 mm 2 mps 733 mmHg 72%
    17:00 +21°C° 0.7 mm 2 mps 733 mmHg 73%
    18:00 +21°C° 0.5 mm 1 mps 733 mmHg 78%
    19:00 +20°C° 0.5 mm 1 mps 733 mmHg 84%
    20:00 +18°C° 0.5 mm 1 mps 733 mmHg 89%
    21:00 +18°C° 0.1 mm 1 mps 732 mmHg 90%
    22:00 +16°C° 0.1 mm 1 mps 732 mmHg 91%
    23:00 +15°C° 0.1 mm 1 mps 732 mmHg 92%

    Day after tomorrow, 25 May, Saturday

    Time Temperature Precipitation Wind Pressure Humidity
    00:00 +15°C° 0 mm 1 mps 732 mmHg 93%
    01:00 +14°C° 0 mm 1 mps 732 mmHg 95%
    02:00 +14°C° 0 mm 2 mps 732 mmHg 96%
    03:00 +14°C° 0 mm 2 mps 732 mmHg 97%
    04:00 +14°C° 0 mm 2 mps 732 mmHg 97%
    05:00 +14°C° 0 mm 2 mps 732 mmHg 98%
    06:00 +14°C° 0 mm 2 mps 732 mmHg 95%
    07:00 +15°C° 0 mm 2 mps 732 mmHg 92%
    08:00 +16°C° 0 mm 2 mps 732 mmHg 89%
    09:00 +17°C° 0 mm 3 mps 732 mmHg 81%
    10:00 +19°C° 0 mm 3 mps 732 mmHg 73%
    11:00 +20°C° 0 mm 3 mps 732 mmHg 64%
    12:00 +21°C° 0 mm 3 mps 731 mmHg 61%
    13:00 +21°C° 0 mm 3 mps 731 mmHg 57%
    14:00 +22°C° 0 mm 3 mps 731 mmHg 53%
    15:00 +22°C° 0 mm 3 mps 731 mmHg 53%
    16:00 +21°C° 0 mm 3 mps 730 mmHg 53%
    17:00 +21°C° 0 mm 3 mps 730 mmHg 54%
    18:00 +19°C° 0 mm 3 mps 730 mmHg 61%
    19:00 +18°C° 0 mm 3 mps 730 mmHg 68%
    20:00 +16°C° 0 mm 3 mps 730 mmHg 75%
    21:00 +14°C° 0 mm 3 mps 730 mmHg 80%
    22:00 +12°C° 0 mm 4 mps 730 mmHg 84%
    23:00 +11°C° 0 mm 4 mps 730 mmHg 89%

    26 May, Sunday

    Time Temperature Precipitation Wind Pressure Humidity
    00:00 +10°C° 0 mm 4 mps 730 mmHg 89%
    01:00 +9°C° 0 mm 3 mps 730 mmHg 89%
    02:00 +8°C° 0 mm 3 mps 730 mmHg 90%
    03:00 +8°C° 0 mm 3 mps 730 mmHg 90%
    04:00 +8°C° 0 mm 3 mps 730 mmHg 91%
    05:00 +8°C° 0 mm 3 mps 730 mmHg 91%
    06:00 +9°C° 0 mm 3 mps 730 mmHg 87%
    07:00 +10°C° 0 mm 4 mps 730 mmHg 83%
    08:00 +11°C° 0 mm 4 mps 730 mmHg 79%
    09:00 +13°C° 0 mm 5 mps 730 mmHg 72%
    10:00 +14°C° 0 mm 5 mps 730 mmHg 66%
    11:00 +16°C° 0 mm 5 mps 730 mmHg 59%
    12:00 +16°C° 0.3 mm 5 mps 730 mmHg 62%
    13:00 +16°C° 0.3 mm 5 mps 730 mmHg 65%
    14:00 +15°C° 0.3 mm 6 mps 729 mmHg 68%
    15:00 +14°C° 0.9 mm 5 mps 729 mmHg 76%
    16:00 +12°C° 0.9 mm 5 mps 729 mmHg 83%
    17:00 +10°C° 0.9 mm 5 mps 729 mmHg 90%
    18:00 +9°C° 0.7 mm 5 mps 729 mmHg 91%
    19:00 +8°C° 0.7 mm 4 mps 729 mmHg 93%
    20:00 +7°C° 0.7 mm 4 mps 729 mmHg 94%
    21:00 +7°C° 0.3 mm 4 mps 729 mmHg 93%
    22:00 +7°C° 0.3 mm 4 mps 729 mmHg 92%
    23:00 +6°C° 0.3 mm 4 mps 729 mmHg 92%

    27 May, Monday

    Time Temperature Precipitation Wind Pressure Humidity
    00:00 +6°C° 0.1 mm 4 mps 729 mmHg 92%
    01:00 +5°C° 0.1 mm 4 mps 729 mmHg 93%
    02:00 +5°C° 0.1 mm 4 mps 729 mmHg 93%
    03:00 +5°C° 0 mm 4 mps 730 mmHg 93%
    04:00 +5°C° 0 mm 4 mps 730 mmHg 93%
    05:00 +5°C° 0 mm 4 mps 730 mmHg 92%
    06:00 +6°C° 0 mm 5 mps 731 mmHg 87%
    07:00 +7°C° 0 mm 5 mps 731 mmHg 81%
    08:00 +9°C° 0 mm 6 mps 732 mmHg 76%
    09:00 +9°C° 0 mm 6 mps 732 mmHg 74%
    10:00 +10°C° 0 mm 5 mps 733 mmHg 73%
    11:00 +10°C° 0 mm 5 mps 734 mmHg 71%
    12:00 +12°C° 0 mm 5 mps 734 mmHg 69%
    13:00 +13°C° 0 mm 5 mps 734 mmHg 66%
    14:00 +14°C° 0 mm 5 mps 735 mmHg 64%
    15:00 +14°C° 0 mm 5 mps 735 mmHg 65%
    16:00 +14°C° 0 mm 5 mps 735 mmHg 65%
    17:00 +14°C° 0 mm 5 mps 735 mmHg 66%
    18:00 +13°C° 0 mm 4 mps 735 mmHg 72%
    19:00 +12°C° 0 mm 3 mps 735 mmHg 78%
    20:00 +12°C° 0 mm 2 mps 735 mmHg 84%
    21:00 +10°C° 0 mm 2 mps 735 mmHg 87%
    22:00 +9°C° 0 mm 3 mps 735 mmHg 90%
    23:00 +9°C° 0 mm 3 mps 735 mmHg 93%

    28 May, Tuesday

    Time Temperature Precipitation Wind Pressure Humidity
    00:00 +9°C° 0 mm 3 mps 735 mmHg 92%
    01:00 +9°C° 0 mm 3 mps 735 mmHg 92%
    02:00 +8°C° 0 mm 4 mps 735 mmHg 92%
    03:00 +8°C° 0 mm 4 mps 735 mmHg 90%
    04:00 +8°C° 0 mm 4 mps 735 mmHg 88%
    05:00 +10°C° 0 mm 4 mps 735 mmHg 87%
    06:00 +11°C° 0 mm 4 mps 735 mmHg 81%
    07:00 +13°C° 0 mm 4 mps 735 mmHg 75%
    08:00 +15°C° 0 mm 4 mps 735 mmHg 70%
    09:00 +16°C° 0 mm 5 mps 735 mmHg 68%
    10:00 +17°C° 0 mm 5 mps 734 mmHg 66%
    11:00 +19°C° 0 mm 6 mps 734 mmHg 64%
    12:00 +17°C° 2 mm 6 mps 734 mmHg 74%
    13:00 +15°C° 2 mm 6 mps 733 mmHg 83%
    14:00 +14°C° 2 mm 5 mps 733 mmHg 93%
    15:00 +14°C° 1.5 mm 5 mps 732 mmHg 94%
    16:00 +14°C° 1.5 mm 5 mps 732 mmHg 94%
    17:00 +14°C° 1.5 mm 4 mps 731 mmHg 95%
    18:00 +14°C° 0 mm 4 mps 731 mmHg 95%
    19:00 +16°C° 0 mm 3 mps 731 mmHg 95%
    20:00 +16°C° 0 mm 2 mps 731 mmHg 96%
    21:00 +16°C° 0 mm 2 mps 731 mmHg 96%
    22:00 +16°C° 0 mm 2 mps 731 mmHg 97%
    23:00 +15°C° 0 mm 2 mps 731 mmHg 97%
    Show more